#timestamp,LO_Frequency,Hit,Temp,Hum 
1487966415.7,286047333.0,N,0.0,0.0
1487966435.6,286047336.9,N,0.0,0.0
1487966455.4,286047332.5,N,0.0,0.0
1487966475.2,286047337.3,N,0.0,0.0
1487966495.1,286047336.8,N,0.0,0.0
1487966496.0,286047336.8,N,0.0,0.0
1487966515.8,286047339.6,N,0.0,0.0
1487966535.6,286047341.1,N,0.0,0.0
1487966555.5,286047343.1,N,0.0,0.0
1487966575.3,286047344.3,N,0.0,0.0
1487966595.1,286047342.3,N,0.0,0.0
1487966615.9,286047344.4,N,0.0,0.0
1487966635.7,286047345.8,N,0.0,0.0
1487966655.5,286047343.9,N,0.0,0.0
1487966675.4,286047345.0,N,0.0,0.0
1487966695.2,286047338.9,N,0.0,0.0
1487966715.0,286047338.4,N,0.0,0.0
1487966715.9,286047338.4,N,0.0,0.0
1487966735.8,286047330.5,N,0.0,0.0
1487966755.6,286047323.9,N,0.0,0.0
1487966775.4,286047316.8,N,0.0,0.0
1487966795.3,286047312.3,N,0.0,0.0
1487966815.1,286047309.5,N,0.0,0.0
1487966816.0,286047309.5,N,0.0,0.0
1487966835.8,286047305.9,N,0.0,0.0
1487966855.7,286047299.5,N,0.0,0.0
1487966875.5,286047299.8,N,0.0,0.0
1487966895.3,286047293.3,N,0.0,0.0
1487966915.2,286047290.7,N,0.0,0.0
1487966935.9,286047285.1,N,0.0,0.0
1487966955.7,286047283.3,N,0.0,0.0
1487966975.5,286047280.5,N,0.0,0.0
1487966995.4,286047277.7,N,0.0,0.0
1487967015.2,286047277.7,N,0.0,0.0
1487967035.0,286047269.7,N,0.0,0.0
1487967035.9,286047269.7,N,0.0,0.0
1487967055.8,286047267.2,N,0.0,0.0
1487967075.6,286047262.2,N,0.0,0.0
1487967095.4,286047258.8,N,0.0,0.0
1487967115.3,286047247.8,N,0.0,0.0
1487967135.1,286047251.9,N,0.0,0.0
1487967155.8,286047251.5,N,0.0,0.0
1487967175.7,286047251.1,N,0.0,0.0
1487967195.5,286047253.9,N,0.0,0.0
1487967215.3,286047249.3,N,0.0,0.0
1487967235.2,286047249.9,N,0.0,0.0
1487967255.9,286047248.2,N,0.0,0.0
1487967275.7,286047248.4,N,0.0,0.0
1487967295.6,286047249.1,N,0.0,0.0
1487967315.4,286047249.1,N,0.0,0.0
1487967335.2,286047247.6,N,0.0,0.0
1487967355.1,286047243.4,N,0.0,0.0
1487967356.0,286047243.4,N,0.0,0.0
1487967375.8,286047245.2,N,0.0,0.0
1487967395.6,286047243.3,N,0.0,0.0
1487967415.5,286047241.6,N,0.0,0.0
1487967435.3,286047241.3,N,0.0,0.0
1487967455.1,286047242.8,N,0.0,0.0
1487967475.9,286047240.0,N,0.0,0.0
1487967495.7,286047238.9,N,0.0,0.0
1487967515.5,286047238.5,N,0.0,0.0
1487967535.3,286047240.7,N,0.0,0.0
1487967555.2,286047238.6,N,0.0,0.0
1487967575.0,286047237.8,N,0.0,0.0
1487967575.9,286047237.8,N,0.0,0.0
1487967595.8,286047239.1,N,0.0,0.0
1487967615.6,286047245.7,N,0.0,0.0
1487967635.4,286047247.6,N,0.0,0.0
1487967655.2,286047244.1,N,0.0,0.0
1487967675.1,286047237.9,N,0.0,0.0
1487967676.0,286047237.9,N,0.0,0.0
1487967695.8,286047233.4,N,0.0,0.0
1487967715.6,286047230.1,N,0.0,0.0
1487967735.5,286047229.4,N,0.0,0.0
1487967755.3,286047225.3,N,0.0,0.0
1487967775.1,286047226.5,N,0.0,0.0
1487967795.9,286047226.2,N,0.0,0.0
1487967815.7,286047226.5,N,0.0,0.0
1487967835.5,286047226.7,N,0.0,0.0
1487967855.4,286047223.4,N,0.0,0.0
1487967875.2,286047222.6,N,0.0,0.0
1487967895.0,286047225.1,N,0.0,0.0
1487967895.9,286047225.1,N,0.0,0.0
1487967915.8,286047226.3,N,0.0,0.0
1487967935.6,286047224.5,N,0.0,0.0
1487967955.4,286047220.9,N,0.0,0.0
1487967975.3,286047221.3,N,0.0,0.0
1487967995.1,286047220.8,N,0.0,0.0
1487967996.0,286047220.8,N,0.0,0.0
1487968015.8,286047217.6,N,0.0,0.0
1487968035.7,286047218.5,N,0.0,0.0
1487968055.5,286047216.6,N,0.0,0.0
1487968075.3,286047226.3,N,0.0,0.0
1487968095.2,286047224.9,N,0.0,0.0
1487968115.9,286047231.2,N,0.0,0.0
1487968135.7,286047226.9,N,0.0,0.0
1487968155.6,286047232.2,N,0.0,0.0
1487968175.4,286047232.8,N,0.0,0.0
1487968195.2,286047234.1,N,0.0,0.0
1487968215.1,286047232.0,N,0.0,0.0
1487968216.0,286047232.0,N,0.0,0.0
1487968235.8,286047231.9,N,0.0,0.0
1487968255.6,286047232.7,N,0.0,0.0
1487968275.5,286047233.4,N,0.0,0.0
1487968295.3,286047235.1,N,0.0,0.0
1487968315.1,286047231.9,N,0.0,0.0
1487968335.9,286047227.2,N,0.0,0.0
1487968355.7,286047229.0,N,0.0,0.0
1487968375.5,286047231.8,N,0.0,0.0
1487968395.3,286047237.4,N,0.0,0.0
1487968415.2,286047239.0,N,0.0,0.0
1487968435.0,286047240.7,N,0.0,0.0
1487968435.9,286047240.7,N,0.0,0.0
1487968455.7,286047243.8,N,0.0,0.0
1487968475.6,286047249.1,N,0.0,0.0
1487968495.4,286047248.4,N,0.0,0.0
1487968515.2,286047249.6,N,0.0,0.0
1487968535.1,286047252.7,N,0.0,0.0
1487968536.0,286047252.7,N,0.0,0.0
1487968555.8,286047254.4,N,0.0,0.0
1487968575.6,286047257.6,N,0.0,0.0
1487968595.5,286047262.8,N,0.0,0.0
1487968615.3,286047264.0,N,0.0,0.0
1487968635.1,286047269.9,N,0.0,0.0
1487968655.9,286047265.4,N,0.0,0.0
1487968675.7,286047265.0,N,0.0,0.0
1487968695.5,286047265.9,N,0.0,0.0
1487968715.4,286047264.2,N,0.0,0.0
1487968735.2,286047266.3,N,0.0,0.0
1487968755.0,286047263.7,N,0.0,0.0
1487968755.9,286047263.7,N,0.0,0.0
1487968775.8,286047261.0,N,0.0,0.0
1487968795.6,286047262.2,N,0.0,0.0
1487968815.4,286047266.0,N,0.0,0.0
1487968835.3,286047265.7,N,0.0,0.0
1487968855.1,286047269.2,N,0.0,0.0
1487968856.0,286047269.2,N,0.0,0.0
1487968875.8,286047270.6,N,0.0,0.0
1487968895.7,286047270.1,N,0.0,0.0
1487968915.5,286047274.6,N,0.0,0.0
1487968935.3,286047271.5,N,0.0,0.0
1487968955.2,286047272.6,N,0.0,0.0
1487968975.9,286047268.5,N,0.0,0.0
1487968995.7,286047269.8,N,0.0,0.0
1487969015.5,286047273.1,N,0.0,0.0
1487969035.4,286047274.0,N,0.0,0.0
1487969055.2,286047274.9,N,0.0,0.0
1487969075.0,286047281.2,N,0.0,0.0
1487969075.9,286047281.2,N,0.0,0.0
1487969095.8,286047282.5,N,0.0,0.0
1487969115.6,286047282.9,N,0.0,0.0
1487969135.4,286047286.0,N,0.0,0.0
1487969155.3,286047285.8,N,0.0,0.0
1487969175.1,286047284.9,N,0.0,0.0
1487969195.8,286047286.7,N,0.0,0.0
1487969215.7,286047288.8,N,0.0,0.0
1487969235.5,286047290.7,N,0.0,0.0
1487969255.3,286047290.3,N,0.0,0.0
1487969275.2,286047288.3,N,0.0,0.0
1487969295.9,286047288.6,N,0.0,0.0
1487969315.7,286047287.4,N,0.0,0.0
1487969335.6,286047286.6,N,0.0,0.0
1487969355.4,286047286.0,N,0.0,0.0
1487969375.2,286047287.2,N,0.0,0.0
1487969395.1,286047286.7,N,0.0,0.0
1487969396.0,286047286.7,N,0.0,0.0
1487969415.8,286047287.6,N,0.0,0.0
1487969435.6,286047284.7,N,0.0,0.0
1487969455.5,286047287.0,N,0.0,0.0
1487969475.3,286047287.4,N,0.0,0.0
1487969495.1,286047281.6,N,0.0,0.0
1487969515.9,286047281.6,N,0.0,0.0
1487969535.7,286047283.1,N,0.0,0.0
1487969555.5,286047284.3,N,0.0,0.0
1487969575.3,286047283.0,N,0.0,0.0
1487969595.2,286047283.1,N,0.0,0.0
1487969615.0,286047287.1,Y,0.0,0.0
1487969615.9,286047287.1,Y,0.0,0.0
1487969635.8,286046828.2,N,0.0,0.0
1487969655.6,286046829.3,N,0.0,0.0
1487969675.4,286046831.2,N,0.0,0.0
1487969695.3,286046832.6,N,0.0,0.0
1487969715.1,286046834.8,N,0.0,0.0
1487969716.0,286046834.8,N,0.0,0.0
1487969735.8,286046833.8,N,0.0,0.0
1487969755.7,286046835.6,N,0.0,0.0
1487969775.5,286046837.4,N,0.0,0.0
1487969795.3,286046837.5,N,0.0,0.0
1487969815.2,286046832.3,N,0.0,0.0
1487969835.9,286046828.5,N,0.0,0.0
1487969855.7,286046833.2,N,0.0,0.0
1487969875.5,286046829.2,N,0.0,0.0
1487969895.4,286046832.3,N,0.0,0.0
1487969915.2,286046830.7,N,0.0,0.0
1487969935.0,286046832.3,N,0.0,0.0
1487969935.9,286046832.3,N,0.0,0.0
1487969955.8,286046833.2,N,0.0,0.0
1487969975.6,286046832.3,N,0.0,0.0
1487969995.4,286046833.1,N,0.0,0.0
